Regional Weather Roundup
Issued by NWS State College, PA

Home | Current Version | Previous Version | Text Only | Print | Product List | Glossary On
Versions: 1 2 3 4 5 6 7 8 9 10 11 12 13 14 15 16 17 18 19 20 21 22 23 24 25 26 27 28 29 30 31 32 33 34 35 36 37 38 39 40 41 42 43 44 45 46 47 48 49 50
000
ASUS41 KCTP 011203
RWRCTP

REGIONAL WEATHER ROUNDUP
NATIONAL WEATHER SERVICE STATE COLLEGE PA
800 AM EDT WED JUL 01 2015

Note: "fair" indicates few or no clouds below 12,000 feet with no
significant weather and/or obstructions to visibility.

* = STATION THAT DOES NOT REPORT PRECIPITATION /E.G. RAIN...SNOW...ETC/
    THUNDER OR FOG.

PAZ002>004-007>009-013>016-020>023-029>032-011300-
WESTERN PENNSYLVANIA

CITY           SKY/WX    TMP DP  RH WIND       PRES   REMARKS
ERIE           CLOUDY    64  60  87 W7        29.80R
MEADVILLE      CLOUDY    63  60  90 SW7       29.83R FOG
FRANKLIN*      CLOUDY    61  57  88 SW10      29.85S
NEW CASTLE     PTSUNNY   64  63  97 SW8       29.86S
BEAVER COUNTY  CLOUDY    63  61  94 SW7       29.86F FOG
BUTLER*        CLOUDY    61  61 100 W8        29.88S VSB 1
PITTSBURGH INT CLOUDY    63  60  90 SW7       29.87S FOG
PITTSBURGH     CLOUDY    62  57  83 SW8       29.88R HAZE
INDIANA*       FOG       61  61 100 SW10      29.90S VSB 1/4
LATROBE        CLOUDY    61  61 100 SW12      29.90R FOG
WASHINGTON CO* NOT AVBL
$$

PAZ004>006-010>012-017>019-024>028-033>037-041-042-045-046-049>053-011300-
CENTRAL PENNSYLVANIA

CITY           SKY/WX    TMP DP  RH WIND       PRES   REMARKS
BRADFORD       CLOUDY    60  58  92 SW7       29.82S FOG
DUBOIS         CLOUDY    61  58  90 SW10      29.85R FOG
CLEARFIELD     CLOUDY    61  59  93 SW9       29.85S FOG
JOHNSTOWN      FOG       58  57  97 SW9       29.89S VSB 1/4
ALTOONA        PTSUNNY   64  57  78 SW10      29.88S
STATE COLLEGE  MOSUNNY   63  59  88 SW10      29.83F
WILLIAMSPORT   CLOUDY    65  61  87 NW3       29.79S
SELINSGROVE    CLOUDY    68  62  81 CALM      29.82R
FT INDIANTOWN  NOT AVBL
CAPITAL CITY   MOSUNNY   70  62  76 SW8       29.82R
HARRISBURG     MOSUNNY   70  64  81 SW6       29.82R
YORK           SUNNY     69  62  78 VRB5      29.84R
$$

PAZ038>040-043-044-047-048-054-055-060>062-067>071-011300-
EASTERN PENNSYLVANIA

CITY           SKY/WX    TMP DP  RH WIND       PRES   REMARKS
SCRANTON       MOSUNNY   67  62  84 SW12      29.80R
MOUNT POCONO   MOSUNNY   62  59  90 W12       29.82R
ALLENTOWN      MOSUNNY   68  65  90 W7        29.80R FOG
QUAKERTOWN*    PTSUNNY   68  66  94 SW3       29.81S
READING        CLOUDY    68  65  90 W6        29.81R
LANCASTER      MOSUNNY   68  65  90 SW6       29.82R FOG
COATESVILLE    PTSUNNY   66  66 100 W6        29.85R
POTTSTOWN      PTSUNNY   67  66  97 CALM      29.83R
BLUE BELL      MOSUNNY   70  68  94 W5        29.81R
DOYLESTOWN     CLOUDY    67  65  93 SW3       29.80S
WILLOW GROVE   NOT AVBL
NORTH PHILA    MOSUNNY   71  64  78 SW5       29.82R
PHILADELPHIA   PTSUNNY   71  66  84 SW9       29.82R
$$


USA.gov is the U.S. government's official web portal to all federal, state and local government web resources and services.